Wind_Speed
12 13 12 10 12 11 12 12 12 11 10 11 10 10 11 12 11 10 9 9 10 9 6 6 6 5 16 18 14 12 16 21 19 15 9 3 10 5 9 1 3 5 4 9 11 11 10
12 11 11 10 10 11 11 12 12 11 10 10 9 9 9 11 11 10 10 8 9 9 7 5 5 6 19 17 13 6 14 23 20 17 10 4 13 6 14 7 4 4 3 8 5 4 6
11 11 10 10 9 10 11 11 11 11 10 9 9 8 8 9 10 10 10 9 8 9 8 5 4 8 21 19 10 10 6 19 20 18 11 1 17 15 13 9 8 2 8 3 7 3 4
12 12 10 10 9 10 10 9 10 11 10 9 9 8 7 8 8 9 10 9 8 9 8 4 3 8 21 19 13 11 8 16 23 19 13 2 16 11 7 11 4 7 5 9 13 10 6
12 12 12 10 9 10 10 9 9 10 10 9 9 8 7 7 7 8 8 9 9 10 9 5 6 10 22 22 18 9 10 16 18 19 14 1 7 6 4 5 11 9 13 12 18 11 14
13 13 12 12 10 10 10 10 9 10 10 9 10 9 7 7 7 7 7 8 8 10 10 7 5 11 5 8 9 12 13 12 10 10 11 6 10 8 13 15 9 9 16 6 22 6 3
14 13 12 12 11 12 11 11 10 9 10 10 10 9 7 6 6 6 8 10 8 6 13 8 8 5 8 1 2 13 13 15 15 11 12 11 16 10 8 7 10 5 9 12 6 10 13
15 14 13 12 12 12 12 12 11 10 10 9 10 9 7 7 7 10 16 13 12 12 15 17 13 13 10 5 10 11 12 12 13 17 13 14 18 17 17 6 11 9 12 11 4 12 14
16 15 14 12 12 13 12 12 12 11 10 10 10 9 8 8 9 11 15 15 10 13 12 18 13 16 14 15 13 7 21 19 17 15 18 17 14 16 16 16 13 5 19 11 12 5 4
16 16 15 13 14 14 13 12 13 12 11 10 10 9 9 9 10 11 13 12 11 14 5 13 15 14 18 13 11 14 10 19 18 19 13 19 20 15 9 12 25 6 6 8 11 9 6
15 17 17 15 15 16 14 13 13 13 12 11 11 10 10 11 13 16 16 14 10 11 2 10 15 7 11 11 7 11 15 17 17 16 12 20 20 13 7 2 22 5 6 10 12 19 5
16 17 18 17 16 16 15 14 13 13 13 12 12 11 12 12 15 18 9 11 15 5 8 9 18 17 14 14 10 10 16 15 15 15 18 23 15 9 15 6 9 4 5 9 17 21 7
18 17 18 17 17 17 16 15 14 14 14 12 13 13 13 14 17 16 11 17 7 7 10 19 17 20 18 18 13 21 17 17 22 13 16 15 13 18 5 3 7 11 8 10 13 4 6
16 18 18 18 17 17 17 15 14 15 14 13 14 15 15 14 17 14 16 19 7 18 14 15 15 18 25 18 15 18 16 19 18 18 17 16 14 14 13 12 9 12 13 6 7 3 2
16 16 18 18 18 18 18 17 15 14 15 13 14 15 14 16 17 17 19 18 15 19 5 12 19 19 20 22 15 19 21 18 20 18 23 10 15 13 8 19 11 8 7 13 21 14 12
17 16 16 17 18 18 19 19 16 14 15 12 13 12 10 16 19 20 23 29 29 10 12 6 23 18 20 24 24 20 21 15 18 21 15 20 21 17 14 11 11 7 10 11 12 5 3
17 16 16 16 17 17 18 19 19 15 14 11 9 4 4 10 21 22 29 37 26 7 9 9 3 13 19 22 25 20 22 19 15 17 22 15 15 19 8 6 7 8 7 9 5 4 8
16 16 17 16 15 16 16 16 19 18 15 12 10 12 7 7 15 22 30 32 27 13 6 13 10 6 6 12 23 21 18 17 15 16 16 19 12 13 15 11 10 12 9 12 9 6 13
15 16 17 15 16 15 16 15 17 18 17 15 14 17 21 13 14 18 21 25 23 16 6 15 17 10 7 13 15 25 16 14 14 16 8 13 8 12 12 9 11 9 7 8 12 12 12
15 15 16 16 15 15 15 16 17 17 18 17 15 16 10 18 15 17 16 14 21 17 12 14 13 22 13 13 7 19 16 10 16 15 15 8 11 10 18 10 16 16 9 7 2 7 13
16 15 15 16 16 16 15 16 18 18 19 19 18 17 10 19 18 13 23 18 20 21 17 22 16 16 16 14 10 13 18 14 10 15 16 16 16 11 14 16 13 7 10 6 7 6 7
16 16 15 16 16 16 16 17 18 18 20 20 20 23 21 22 15 13 20 22 20 18 22 14 23 14 17 17 18 7 14 16 12 7 9 13 16 16 15 11 9 11 10 6 11 10 10
17 16 16 16 16 17 17 18 19 20 22 21 28 27 15 25 20 7 18 22 13 13 20 22 20 16 21 16 17 15 10 15 12 10 10 12 14 13 11 9 10 7 9 14 11 10 13
17 16 16 16 17 17 18 18 19 21 22 27 27 22 22 29 16 9 6 20 19 18 13 21 21 20 22 13 17 19 15 15 18 14 6 16 17 16 11 6 2 9 13 8 3 4 4
17 16 16 17 17 18 19 19 20 21 23 29 26 23 27 30 22 9 7 10 18 22 20 17 16 16 19 16 10 15 10 10 16 21 14 13 13 9 8 9 7 10 12 6 5 6 3
17 17 17 17 17 18 19 18 18 20 23 26 24 27 30 28 29 14 11 4 9 17 22 20 14 18 18 13 15 16 11 8 6 12 15 12 5 7 7 3 2 8 4 4 10 2 9
18 17 17 17 17 18 20 20 15 17 20 22 24 28 31 32 32 19 7 10 10 7 14 27 12 13 18 17 13 17 17 11 7 10 11 16 15 9 9 7 10 10 12 3 6 2 6
16 16 16 16 17 17 17 20 19 17 16 21 24 26 29 35 32 28 15 18 16 15 6 21 15 15 18 19 12 18 9 20 18 17 20 22 17 6 10 16 3 10 8 3 5 7 10
16 16 16 17 17 17 17 16 16 15 14 20 24 25 31 35 28 31 19 19 16 21 10 12 16 17 17 22 16 13 18 15 20 5 15 16 10 10 5 5 4 2 4 6 11 15 15
Wind_Direction
291 291 284 278 276 270 270 266 264 263 265 267 268 262 253 241 230 225 218 216 214 216 235 283 297 237 188 188 193 190 193 201 199 198 199 167 12 29 66 104 225 219 73 91 57 95 115
294 289 286 280 277 273 267 269 264 260 259 263 264 260 247 237 227 220 216 210 210 210 228 266 281 215 185 183 210 171 195 198 198 198 203 155 352 100 106 85 129 148 98 59 139 214 153
290 289 284 279 278 274 268 267 266 264 258 259 260 255 244 231 223 218 211 207 209 203 218 254 261 204 183 171 189 237 207 195 208 206 209 213 349 291 330 325 265 187 260 237 247 283 203
285 284 282 277 275 274 269 265 266 263 260 257 255 249 240 228 220 215 210 205 207 206 207 236 235 199 180 194 212 236 194 190 201 213 213 277 359 332 49 300 155 246 347 354 213 224 190
285 279 278 274 273 273 271 266 261 262 258 253 252 244 234 227 216 213 205 204 204 204 198 205 206 186 175 213 235 256 215 192 199 211 216 240 340 330 300 17 159 207 34 327 281 250 294
282 279 276 273 271 273 270 270 263 260 258 253 248 244 231 221 208 202 195 192 194 196 193 188 168 160 254 276 254 219 190 186 195 214 235 265 267 279 283 231 178 155 107 27 266 242 87
280 277 275 272 270 271 268 268 268 261 259 254 248 243 229 213 198 180 163 149 147 183 193 182 162 130 14 131 243 173 186 179 187 219 227 220 235 217 292 321 246 222 198 197 321 343 265
280 277 275 274 270 270 268 266 266 262 258 253 251 243 226 206 185 168 162 169 163 195 194 185 186 154 124 187 192 203 192 199 194 218 229 239 247 264 219 289 213 219 230 221 326 22 132
276 274 274 273 273 270 268 266 266 262 258 252 249 242 219 203 187 183 183 199 183 203 219 207 212 197 167 194 218 251 190 197 200 212 224 229 233 271 242 244 178 277 267 281 338 339 241
272 274 271 270 268 266 266 265 265 262 257 253 247 242 215 200 180 173 189 216 200 201 239 224 216 205 206 225 243 175 252 189 197 214 234 241 239 289 257 247 202 128 258 275 44 50 82
276 269 270 270 268 266 262 261 263 262 257 251 248 237 220 199 180 185 202 187 163 169 270 206 209 203 209 167 99 172 216 195 199 206 225 244 240 219 225 173 187 24 71 134 61 25 342
273 269 269 270 269 268 265 258 260 261 257 249 247 234 224 201 191 203 205 181 158 156 243 153 187 189 182 179 163 194 202 205 215 242 256 260 273 216 222 216 241 249 293 27 9 340 341
279 270 265 266 267 268 266 263 258 259 258 250 246 238 222 204 208 205 195 173 139 229 165 166 187 185 189 174 165 184 196 212 210 238 262 263 268 203 237 277 246 268 304 60 325 14 246
282 267 265 264 269 267 266 262 259 258 257 252 247 242 222 208 208 198 189 172 205 206 190 197 193 189 191 193 185 199 205 216 219 226 249 246 265 229 239 218 245 282 320 308 182 180 344
298 281 265 262 263 266 264 263 261 260 258 251 250 246 223 209 204 192 191 179 205 182 273 182 185 179 203 201 207 210 209 228 224 229 247 271 254 264 275 243 233 236 269 318 93 85 111
295 289 274 263 265 264 263 258 258 261 260 252 252 248 236 215 201 197 200 205 212 225 329 325 173 188 199 205 209 216 210 231 231 230 242 256 283 275 264 227 220 214 279 323 315 157 202
292 287 280 274 267 266 263 255 250 252 256 247 246 198 302 217 202 202 212 212 224 198 336 320 170 201 203 201 214 222 213 235 230 228 229 255 265 282 318 189 220 303 299 240 240 210 159
295 288 281 274 271 266 262 258 248 244 247 237 214 148 146 250 219 215 222 220 219 208 283 285 260 241 228 220 209 219 219 232 228 218 228 226 260 277 283 240 279 280 250 277 277 214 247
300 292 284 275 267 263 263 256 245 240 235 231 217 181 166 226 233 233 234 234 223 215 248 278 260 233 255 291 235 205 219 224 209 188 215 185 209 274 300 279 202 224 227 273 293 322 336
305 294 286 277 265 258 255 252 241 237 228 222 215 197 209 207 257 222 231 254 240 205 244 240 271 246 270 272 215 199 208 173 172 186 206 196 210 252 252 266 326 208 213 226 162 290 315
307 299 287 275 264 251 247 248 238 234 225 216 207 185 226 204 243 263 211 239 238 243 233 222 242 234 252 274 236 199 201 186 172 195 208 221 231 253 260 287 307 339 236 253 201 257 259
304 300 290 279 269 251 242 243 236 230 223 216 207 227 226 210 208 228 235 212 220 231 230 254 225 227 234 253 239 257 196 195 191 213 238 212 211 242 282 284 311 333 332 286 289 285 284
300 296 290 279 271 255 240 238 235 227 219 208 215 221 232 201 206 264 244 218 233 232 228 224 222 232 226 232 236 242 261 223 225 215 234 184 212 237 270 272 292 280 286 273 275 278 289
295 292 287 279 270 256 241 235 233 224 220 213 218 220 219 212 216 246 231 225 238 238 225 219 223 221 205 216 250 252 238 214 210 202 214 192 210 229 254 282 336 257 316 356 69 29 75
291 288 282 276 268 258 243 235 233 224 220 218 219 217 221 222 217 211 226 214 223 220 230 223 213 223 219 240 217 219 229 210 204 197 193 195 186 240 234 262 269 282 327 340 19 3 353
289 284 280 273 265 256 246 241 235 227 221 219 217 219 224 230 224 238 212 191 215 205 225 214 197 204 206 200 212 214 202 195 165 180 205 201 233 218 189 237 254 322 23 288 276 36 317
287 283 278 270 263 255 240 238 237 228 223 215 213 221 227 229 224 232 214 180 186 166 188 202 222 224 193 200 219 215 219 219 226 190 224 243 264 263 274 248 241 266 286 261 232 220 298
287 282 274 267 257 251 238 233 237 233 223 214 213 220 223 225 219 221 191 162 172 179 182 194 206 216 196 210 225 200 218 236 235 227 223 228 223 221 265 264 192 327 295 234 167 221 255
284 279 273 263 253 246 231 233 232 227 225 218 214 221 224 226 216 217 196 178 180 168 183 172 172 194 209 211 221 214 236 193 199 148 191 198 197 196 265 257 244 336 322 223 236 250 271
Height
3146 3146 3145 3144 3144 3143 3143 3143 3143 3142 3142 3142 3142 3142 3142 3143 3145 3147 3149 3151 3152 3154 3155 3155 3154 3154 3156 3159 3162 3165 3168 3172 3175 3178 3180 3182 3184 3187 3178 3186 3182 3182 3184 3183 3181 3182 3184
3144 3142 3143 3142 3141 3141 3140 3140 3141 3140 3140 3140 3140 3140 3140 3141 3143 3146 3148 3150 3151 3152 3154 3154 3154 3153 3155 3160 3163 3164 3167 3170 3175 3178 3180 3182 3184 3183 3182 3186 3184 3183 3184 3186 3181 3184 3182
3141 3140 3139 3139 3139 3139 3138 3138 3138 3138 3138 3138 3139 3138 3139 3140 3141 3144 3147 3148 3150 3152 3153 3153 3153 3152 3155 3160 3160 3162 3166 3171 3174 3178 3180 3182 3183 3184 3186 3189 3186 3184 3183 3187 3183 3181 3183
3139 3138 3137 3136 3136 3136 3136 3136 3136 3136 3136 3136 3137 3137 3138 3139 3140 3143 3145 3147 3149 3150 3152 3153 3152 3153 3156 3158 3161 3161 3165 3169 3174 3177 3180 3182 3183 3180 3185 3186 3185 3184 3183 3178 3178 3179 3185
3137 3136 3135 3134 3134 3134 3134 3134 3134 3134 3134 3134 3134 3135 3136 3138 3139 3141 3143 3146 3148 3149 3151 3152 3152 3153 3157 3158 3159 3162 3165 3169 3173 3177 3180 3181 3185 3184 3186 3187 3186 3185 3183 3182 3181 3185 3188
3134 3134 3133 3133 3132 3132 3132 3132 3132 3132 3132 3132 3133 3134 3135 3137 3138 3140 3142 3144 3146 3148 3150 3151 3153 3157 3158 3157 3157 3159 3164 3168 3172 3176 3181 3182 3184 3184 3182 3183 3188 3187 3184 3191 3182 3181 3179
3131 3131 3130 3130 3129 3130 3129 3129 3129 3130 3130 3131 3131 3132 3134 3136 3138 3139 3142 3144 3148 3149 3148 3152 3152 3155 3155 3156 3158 3159 3164 3168 3172 3176 3179 3180 3183 3183 3179 3181 3184 3184 3183 3181 3176 3174 3176
3128 3128 3128 3128 3127 3127 3127 3127 3127 3127 3128 3129 3129 3130 3132 3135 3137 3138 3140 3141 3144 3146 3147 3147 3150 3150 3153 3159 3160 3161 3165 3168 3170 3172 3177 3179 3181 3181 3182 3180 3182 3181 3180 3176 3174 3173 3181
3126 3125 3125 3125 3125 3125 3124 3124 3125 3125 3125 3126 3127 3128 3131 3133 3135 3138 3140 3141 3143 3144 3146 3147 3148 3150 3152 3156 3157 3158 3162 3165 3169 3171 3173 3175 3176 3175 3176 3179 3184 3186 3181 3180 3178 3178 3181
3122 3122 3121 3121 3121 3122 3122 3122 3122 3123 3123 3124 3125 3126 3129 3131 3136 3136 3137 3139 3141 3144 3146 3145 3146 3148 3151 3153 3153 3154 3159 3164 3166 3168 3170 3172 3174 3174 3171 3172 3175 3185 3177 3177 3178 3177 3177
3118 3118 3118 3118 3118 3119 3119 3119 3119 3120 3121 3122 3123 3124 3127 3130 3132 3134 3135 3137 3141 3145 3146 3141 3143 3146 3148 3151 3154 3154 3158 3161 3162 3164 3170 3167 3170 3172 3171 3175 3175 3173 3175 3178 3176 3176 3180
3114 3114 3114 3114 3115 3116 3116 3116 3116 3118 3118 3119 3120 3122 3124 3128 3130 3131 3135 3138 3140 3146 3141 3139 3140 3143 3147 3149 3152 3156 3158 3161 3162 3164 3164 3164 3168 3170 3170 3172 3174 3174 3177 3174 3176 3175 3173
3109 3109 3110 3111 3111 3112 3113 3113 3114 3115 3115 3117 3117 3119 3122 3125 3128 3131 3135 3137 3142 3140 3136 3139 3138 3142 3144 3148 3150 3156 3157 3158 3160 3163 3162 3162 3163 3172 3170 3170 3171 3172 3172 3178 3186 3179 3181
3105 3105 3106 3107 3108 3108 3109 3110 3111 3112 3112 3114 3115 3116 3119 3123 3126 3130 3133 3137 3138 3132 3131 3134 3136 3140 3143 3146 3149 3153 3155 3157 3160 3161 3162 3162 3163 3164 3165 3167 3170 3170 3172 3172 3178 3181 3179
3101 3100 3101 3102 3103 3104 3105 3106 3107 3108 3109 3111 3112 3113 3117 3120 3123 3127 3131 3131 3128 3127 3134 3136 3134 3137 3142 3146 3149 3151 3152 3155 3157 3160 3161 3160 3161 3161 3164 3165 3167 3169 3171 3172 3173 3176 3174
3097 3096 3096 3097 3099 3100 3101 3102 3104 3106 3106 3108 3109 3111 3115 3117 3120 3124 3126 3124 3121 3126 3127 3127 3130 3135 3140 3143 3147 3148 3150 3152 3154 3157 3158 3158 3161 3160 3159 3161 3164 3166 3169 3169 3168 3177 3177
3094 3093 3093 3093 3094 3095 3096 3098 3100 3102 3104 3106 3108 3110 3111 3114 3118 3119 3119 3119 3122 3125 3127 3129 3130 3133 3135 3139 3143 3145 3148 3150 3150 3152 3156 3157 3159 3157 3159 3159 3161 3164 3166 3166 3166 3166 3168
3089 3089 3088 3088 3089 3091 3092 3093 3095 3098 3101 3104 3106 3110 3114 3114 3116 3115 3115 3118 3121 3123 3125 3127 3128 3130 3131 3137 3139 3142 3145 3146 3147 3150 3152 3154 3155 3156 3157 3157 3158 3160 3162 3163 3163 3164 3160
3086 3085 3085 3085 3085 3087 3088 3089 3091 3094 3098 3101 3104 3107 3108 3113 3112 3112 3115 3117 3119 3121 3123 3127 3127 3129 3129 3131 3135 3138 3142 3142 3144 3147 3149 3151 3153 3156 3155 3156 3156 3156 3159 3160 3160 3160 3160
3082 3081 3081 3081 3081 3082 3083 3085 3088 3090 3094 3098 3102 3106 3109 3107 3109 3111 3114 3116 3117 3119 3122 3126 3125 3128 3128 3128 3130 3135 3140 3141 3142 3144 3147 3150 3153 3155 3155 3154 3156 3155 3156 3156 3158 3161 3159
3078 3077 3077 3076 3077 3078 3079 3081 3083 3087 3090 3095 3098 3100 3099 3101 3107 3108 3110 3111 3114 3117 3122 3124 3124 3125 3128 3128 3129 3132 3136 3138 3141 3144 3147 3151 3153 3153 3153 3154 3154 3154 3155 3155 3155 3158 3159
3074 3073 3073 3073 3073 3074 3075 3076 3079 3083 3086 3091 3094 3091 3092 3097 3101 3103 3105 3107 3109 3113 3119 3119 3122 3123 3125 3126 3129 3132 3135 3136 3138 3142 3145 3147 3150 3153 3151 3151 3152 3152 3153 3153 3154 3155 3155
3071 3069 3069 3069 3069 3070 3071 3072 3074 3078 3082 3086 3084 3088 3091 3093 3097 3101 3102 3104 3106 3110 3113 3117 3120 3122 3123 3124 3127 3129 3131 3132 3135 3138 3142 3145 3148 3150 3151 3151 3151 3154 3155 3154 3153 3153 3153
3067 3066 3065 3065 3065 3066 3067 3068 3069 3073 3077 3081 3083 3086 3090 3088 3090 3092 3095 3100 3103 3105 3109 3112 3116 3118 3120 3124 3124 3125 3128 3132 3132 3135 3139 3142 3146 3148 3150 3151 3152 3153 3152 3151 3150 3149 3150
3062 3061 3060 3060 3060 3061 3062 3063 3065 3068 3071 3076 3079 3082 3084 3082 3085 3088 3088 3091 3093 3098 3103 3107 3111 3116 3118 3121 3123 3124 3125 3128 3129 3131 3137 3140 3143 3145 3146 3149 3152 3151 3150 3150 3149 3149 3148
3057 3056 3055 3055 3056 3056 3058 3059 3061 3063 3066 3071 3076 3077 3079 3079 3082 3084 3084 3085 3088 3094 3100 3103 3108 3110 3113 3117 3119 3119 3122 3126 3128 3130 3133 3136 3140 3143 3144 3147 3149 3150 3148 3149 3149 3148 3147
3052 3051 3050 3050 3051 3051 3053 3055 3057 3059 3062 3066 3071 3072 3074 3075 3077 3080 3081 3081 3086 3089 3094 3101 3104 3106 3110 3113 3115 3117 3119 3122 3126 3129 3133 3134 3136 3139 3141 3143 3146 3144 3143 3146 3149 3152 3146
3046 3045 3045 3045 3046 3047 3048 3050 3052 3054 3057 3061 3066 3067 3069 3068 3073 3079 3079 3078 3084 3087 3091 3095 3100 3104 3108 3111 3113 3115 3117 3120 3124 3127 3129 3133 3135 3137 3139 3140 3141 3141 3141 3144 3145 3144 3143
3041 3040 3040 3040 3041 3042 3044 3046 3048 3050 3052 3057 3061 3064 3065 3067 3072 3074 3077 3080 3085 3086 3089 3093 3099 3103 3107 3109 3111 3114 3116 3116 3119 3124 3126 3130 3133 3137 3138 3140 3140 3138 3139 3140 3141 3141 3142